Stündliche Wetter Holoskovychi

Heute, 25 Juni, Freitag

Zeit Temperatur Niederschläge Wind Luftdruck Luftfeuchtigkeit
00:00 +24°C° 0 mm 2 m/S 741 mmHg 86%
01:00 +24°C° 0 mm 2 m/S 740 mmHg 87%
02:00 +22°C° 0 mm 3 m/S 740 mmHg 87%
03:00 +23°C° 0 mm 2 m/S 740 mmHg 88%
04:00 +23°C° 0 mm 2 m/S 740 mmHg 88%
05:00 +23°C° 0 mm 2 m/S 740 mmHg 89%
06:00 +24°C° 0 mm 3 m/S 740 mmHg 85%
07:00 +26°C° 0 mm 3 m/S 740 mmHg 81%
08:00 +27°C° 0 mm 4 m/S 740 mmHg 77%
09:00 +28°C° 0 mm 4 m/S 740 mmHg 72%
10:00 +30°C° 0 mm 4 m/S 740 mmHg 67%
11:00 +32°C° 0 mm 5 m/S 740 mmHg 63%
12:00 +32°C° 0 mm 5 m/S 739 mmHg 61%
13:00 +33°C° 0 mm 5 m/S 739 mmHg 60%
14:00 +33°C° 0 mm 5 m/S 739 mmHg 58%
15:00 +29°C° 1.8 mm 6 m/S 740 mmHg 67%
16:00 +24°C° 1.8 mm 7 m/S 740 mmHg 76%
17:00 +21°C° 1.8 mm 8 m/S 740 mmHg 85%
18:00 +20°C° 0.8 mm 6 m/S 740 mmHg 88%
19:00 +20°C° 0.8 mm 4 m/S 740 mmHg 90%
20:00 +19°C° 0.8 mm 2 m/S 740 mmHg 93%
21:00 +19°C° 0 mm 2 m/S 740 mmHg 93%
22:00 +18°C° 0 mm 2 m/S 740 mmHg 94%
23:00 +19°C° 0 mm 1 m/S 740 mmHg 94%

Morgen, 26 Juni, Samstag

Zeit Temperatur Niederschläge Wind Luftdruck Luftfeuchtigkeit
00:00 +19°C° 0.1 mm 1 m/S 740 mmHg 95%
01:00 +19°C° 0.1 mm 1 m/S 741 mmHg 95%
02:00 +18°C° 0.1 mm 1 m/S 741 mmHg 96%
03:00 +19°C° 0.1 mm 1 m/S 741 mmHg 96%
04:00 +18°C° 0.1 mm 2 m/S 741 mmHg 97%
05:00 +18°C° 0.1 mm 2 m/S 741 mmHg 98%
06:00 +19°C° 0 mm 2 m/S 741 mmHg 97%
07:00 +19°C° 0 mm 2 m/S 741 mmHg 95%
08:00 +20°C° 0 mm 2 m/S 742 mmHg 94%
09:00 +20°C° 0 mm 3 m/S 742 mmHg 91%
10:00 +21°C° 0 mm 3 m/S 742 mmHg 89%
11:00 +21°C° 0 mm 4 m/S 742 mmHg 86%
12:00 +22°C° 0.1 mm 4 m/S 742 mmHg 84%
13:00 +22°C° 0.1 mm 3 m/S 742 mmHg 82%
14:00 +24°C° 0.1 mm 3 m/S 742 mmHg 80%
15:00 +24°C° 0.1 mm 3 m/S 741 mmHg 80%
16:00 +24°C° 0.1 mm 3 m/S 741 mmHg 80%
17:00 +24°C° 0.1 mm 3 m/S 741 mmHg 79%
18:00 +22°C° 0.1 mm 3 m/S 741 mmHg 83%
19:00 +21°C° 0.1 mm 2 m/S 741 mmHg 86%
20:00 +20°C° 0.1 mm 2 m/S 741 mmHg 90%
21:00 +20°C° 0 mm 2 m/S 741 mmHg 90%
22:00 +19°C° 0 mm 2 m/S 741 mmHg 91%
23:00 +18°C° 0 mm 2 m/S 741 mmHg 92%

übermorgen, 27 Juni, Sonntag

Zeit Temperatur Niederschläge Wind Luftdruck Luftfeuchtigkeit
00:00 +18°C° 0 mm 2 m/S 742 mmHg 92%
01:00 +17°C° 0 mm 2 m/S 742 mmHg 92%
02:00 +17°C° 0 mm 2 m/S 742 mmHg 92%
03:00 +17°C° 0 mm 2 m/S 742 mmHg 92%
04:00 +17°C° 0 mm 2 m/S 742 mmHg 92%
05:00 +16°C° 0 mm 1 m/S 742 mmHg 92%
06:00 +18°C° 0 mm 2 m/S 742 mmHg 87%
07:00 +19°C° 0 mm 2 m/S 742 mmHg 81%
08:00 +21°C° 0 mm 2 m/S 742 mmHg 76%
09:00 +22°C° 0 mm 3 m/S 742 mmHg 71%
10:00 +24°C° 0 mm 3 m/S 743 mmHg 66%
11:00 +25°C° 0 mm 4 m/S 743 mmHg 61%
12:00 +25°C° 0 mm 4 m/S 742 mmHg 60%
13:00 +26°C° 0 mm 4 m/S 742 mmHg 59%
14:00 +26°C° 0 mm 4 m/S 742 mmHg 59%
15:00 +26°C° 0 mm 3 m/S 742 mmHg 63%
16:00 +25°C° 0 mm 3 m/S 742 mmHg 68%
17:00 +24°C° 0 mm 3 m/S 742 mmHg 72%
18:00 +23°C° 0.1 mm 2 m/S 742 mmHg 74%
19:00 +23°C° 0.1 mm 2 m/S 742 mmHg 77%
20:00 +21°C° 0.1 mm 2 m/S 742 mmHg 79%
21:00 +21°C° 0 mm 1 m/S 742 mmHg 80%
22:00 +20°C° 0 mm 1 m/S 742 mmHg 81%
23:00 +20°C° 0 mm 1 m/S 743 mmHg 83%

28 Juni, Montag

Zeit Temperatur Niederschläge Wind Luftdruck Luftfeuchtigkeit
00:00 +20°C° 0 mm 1 m/S 743 mmHg 82%
01:00 +19°C° 0 mm 1 m/S 743 mmHg 82%
02:00 +19°C° 0 mm 1 m/S 743 mmHg 82%
03:00 +19°C° 0 mm 1 m/S 743 mmHg 82%
04:00 +19°C° 0 mm 1 m/S 743 mmHg 81%
05:00 +19°C° 0 mm 1 m/S 743 mmHg 80%
06:00 +18°C° 0 mm 0 m/S 743 mmHg 78%
07:00 +19°C° 0 mm 0 m/S 743 mmHg 76%
08:00 +20°C° 0 mm 0 m/S 743 mmHg 73%
09:00 +21°C° 0 mm 0 m/S 743 mmHg 69%
10:00 +24°C° 0 mm 1 m/S 743 mmHg 64%
11:00 +26°C° 0 mm 1 m/S 743 mmHg 59%
12:00 +26°C° 0.1 mm 2 m/S 743 mmHg 58%
13:00 +26°C° 0.1 mm 2 m/S 743 mmHg 57%
14:00 +27°C° 0.1 mm 3 m/S 743 mmHg 57%
15:00 +26°C° 0.1 mm 2 m/S 743 mmHg 58%
16:00 +26°C° 0.1 mm 2 m/S 743 mmHg 60%
17:00 +26°C° 0.1 mm 2 m/S 743 mmHg 62%
18:00 +25°C° 0 mm 1 m/S 742 mmHg 66%
19:00 +24°C° 0 mm 1 m/S 742 mmHg 70%
20:00 +22°C° 0 mm 1 m/S 742 mmHg 74%
21:00 +21°C° 0 mm 1 m/S 742 mmHg 76%
22:00 +20°C° 0 mm 1 m/S 742 mmHg 78%
23:00 +19°C° 0 mm 1 m/S 742 mmHg 80%

29 Juni, Dienstag

Zeit Temperatur Niederschläge Wind Luftdruck Luftfeuchtigkeit
00:00 +19°C° 0 mm 1 m/S 742 mmHg 82%
01:00 +18°C° 0 mm 1 m/S 742 mmHg 83%
02:00 +18°C° 0 mm 1 m/S 742 mmHg 84%
03:00 +16°C° 0 mm 0 m/S 742 mmHg 84%
04:00 +16°C° 0 mm 0 m/S 742 mmHg 84%
05:00 +16°C° 0 mm 0 m/S 742 mmHg 84%
06:00 +18°C° 0 mm 0 m/S 742 mmHg 79%
07:00 +20°C° 0 mm 0 m/S 742 mmHg 75%
08:00 +23°C° 0 mm 1 m/S 742 mmHg 70%
09:00 +24°C° 0 mm 1 m/S 742 mmHg 65%
10:00 +26°C° 0 mm 1 m/S 742 mmHg 60%
11:00 +25°C° 0 mm 0 m/S 741 mmHg 55%
12:00 +27°C° 0 mm 1 m/S 741 mmHg 53%
13:00 +28°C° 0 mm 1 m/S 741 mmHg 51%
14:00 +28°C° 0 mm 1 m/S 741 mmHg 48%
15:00 +28°C° 0 mm 1 m/S 740 mmHg 49%
16:00 +28°C° 0 mm 1 m/S 740 mmHg 50%
17:00 +28°C° 0 mm 1 m/S 740 mmHg 51%
18:00 +27°C° 0 mm 1 m/S 740 mmHg 58%
19:00 +25°C° 0 mm 2 m/S 740 mmHg 65%
20:00 +23°C° 0 mm 2 m/S 740 mmHg 72%
21:00 +21°C° 0 mm 2 m/S 739 mmHg 73%
22:00 +20°C° 0 mm 2 m/S 739 mmHg 73%
23:00 +20°C° 0 mm 2 m/S 739 mmHg 74%

30 Juni, Mittwoch

Zeit Temperatur Niederschläge Wind Luftdruck Luftfeuchtigkeit
00:00 +19°C° 0 mm 2 m/S 739 mmHg 76%
01:00 +19°C° 0 mm 2 m/S 738 mmHg 78%
02:00 +19°C° 0 mm 3 m/S 738 mmHg 80%
03:00 +19°C° 0.2 mm 2 m/S 738 mmHg 83%
04:00 +18°C° 0.2 mm 2 m/S 738 mmHg 87%
05:00 +18°C° 0.2 mm 2 m/S 738 mmHg 90%
06:00 +20°C° 0.1 mm 3 m/S 738 mmHg 86%
07:00 +22°C° 0.1 mm 3 m/S 737 mmHg 82%
08:00 +25°C° 0.1 mm 4 m/S 737 mmHg 78%
09:00 +26°C° 0 mm 4 m/S 737 mmHg 72%
10:00 +28°C° 0 mm 4 m/S 737 mmHg 66%
11:00 +29°C° 0 mm 4 m/S 736 mmHg 60%
12:00 +30°C° 0 mm 4 m/S 736 mmHg 57%
13:00 +32°C° 0 mm 4 m/S 736 mmHg 54%
14:00 +33°C° 0 mm 4 m/S 736 mmHg 52%
15:00 +33°C° 0 mm 3 m/S 736 mmHg 53%
16:00 +33°C° 0 mm 3 m/S 735 mmHg 55%
17:00 +32°C° 0 mm 2 m/S 735 mmHg 57%
18:00 +31°C° 0 mm 2 m/S 735 mmHg 63%
19:00 +29°C° 0 mm 2 m/S 735 mmHg 69%
20:00 +27°C° 0 mm 2 m/S 735 mmHg 75%
21:00 +25°C° 1.9 mm 3 m/S 735 mmHg 80%
22:00 +22°C° 1.9 mm 4 m/S 736 mmHg 84%
23:00 +20°C° 1.9 mm 5 m/S 736 mmHg 89%
Mehr zeigen

Wir brauchen deine Erlaubnis

Meteoprog und unser Service Anbieter werden persönliche Daten aufbewahren, so wie Cookies, Geräte Bezeichnung oder ähnliche Technologien von deinem Gerät und Prozess, so wie Persönliche Daten Inhalte und Werbungen, genauso wie social Media und den Verkehr zu analysieren.

  • Aufbewahrung und/oder Zugang zu deiner Geräte Informationen.

    Cookies, Geräte Bezeichnung oder andere Informationen, können aufbewahrt oder Zugang zu deinem Gerät erhalten, für den Grund, der oben angegeben wird.

  • Personalisierte Werbung und Inhalte, Messungen, Einblick in das Publikum und Produkt Entwicklung.

    Werbungen und Inhalte können personalisiert werden, basierend auf ein Profil. Mehr Daten können besser personalisierte Werbungen und Inhalte hinzufügen. Werbung und Inhalte können gezeigt und gemessen werden. Einblicke über das Publikum, welche die Werbung gesehen haben und den Inhalt, können abgeleitet werden. So wie Daten können genutzt werden, um es zu verbessern oder die Benutzer Erfahrung zu verbessern das System und die Software.

Wenn du “Ich stimme zu” klickst, erlaubst du uns, die Cookies zu benutzen die Geräte Bezeichnung, den Web oder ähnliche Technologien zu benutzen. Deine Settings, können in deinem Gerät bei deinem Browser geändert werden.

Für den bestimmten Zweck, berechtigten Interessen beruhen darauf, mehr als auf den Inhalt. Du kannst mehr darüber in unseren Privaten und Cookie Politik lesen.